Find Starlink 2015

NORAD ID: 47638 Int'l Des: 2021-012 Owner: SPXS Country: US Constellation: starlink operational
LEOCIRCULAR

現在のビュー

3D地球を読み込み中...

About Starlink 2015

Starlink 2015 (NORAD 47638) is a starlink constellation satellite (v1.0) launched Feb 16, 2021 by SPXS of US. It operates in LEO, CIRCULAR orbit with a mass of 260.00 kg.

Starlink 2015について

説明を読み込み中...

次回通過

Passes for default location (London). Set your location on the main map for personalized predictions.

高度履歴

Loading altitude history...

軌道要素

1 47638U 21012U 26168.40628720 .00034140 00000-0 96406-3 0 9996
2 47638 53.1564 227.9067 0005739 352.9818 7.1104 15.36066715296647
Epoch: Jun 17, 2026 • Age: 21 hours

現在のステータス

高度 466.9 km
速度 7.63 km/s
衛星直下点 -21.12°S, 49.76°E
打ち上げ日 Feb 16, 2021
運用期間 5.3 years
タイプ internet

技術仕様

分類 Payload
質量 260.00 kg
乾燥質量 248.00 kg
総質量 260.00 kg
長さ 0.20 m
直径 2.80 m
スパン 9.00 m
形状 Box + pan
製造者 SPXS
バスタイプ Starlink
フェーズステータス In Orbit
所有者/国 SPXS/US

Most Searched